Regional Weather Roundup
Issued by NWS

Home | Current Version | Previous Version | Graphics & Text | Print | Product List | Glossary On
Versions: 1 2 3 4 5 6 7 8 9 10 11 12 13 14 15 16 17 18 19 20 21 22 23 24 25 26 27 28 29 30 31 32 33 34 35 36 37 38 39 40 41 42 43 44 45 46 47 48 49 50
000
ASUS43 KOAX 221810
RWRNE

WEATHER ROUNDUP FOR NEBRASKA
NATIONAL WEATHER SERVICE OMAHA NE
100 PM CDT FRI MAY 22 2015

NOTES: SATELLITE DATA IS BEING USED TO AUGMENT CLOUD COVER ABOVE
       12000 FEET.
       "FAIR" INDICATES FEW OR NO CLOUDS BELOW 12,000 FEET WITH NO
       SIGNIFICANT WEATHER AND/OR OBSTRUCTIONS TO VISIBILITY.

  * THESE STATIONS DO NOT REPORT WEATHER SUCH AS RAIN...SNOW OR FOG.

NEZ001>004-019>022-054>056-221900-
NEBRASKA PANHANDLE

CITY           SKY/WX    TMP DP  RH WIND       PRES   REMARKS
SCOTTSBLUFF    LGT RAIN  49  50 100 SE16      30.07F
6HR MIN TEMP:  48; 6HR MAX TEMP:  50; 6HR PCP:  0.09;

ALLIANCE       LGT RAIN  49  44  83 SE21      30.10S
6HR MIN TEMP:  47; 6HR MAX TEMP:  50; 6HR PCP:  0.02;

CHADRON        CLOUDY    57  43  59 SE14G24   30.09F
6HR MIN TEMP:  51; 6HR MAX TEMP:  57;

KIMBALL          N/A    N/A N/A N/A MISG        N/A
SIDNEY         LGT RAIN  47  45  93 E16       30.08S
6HR MIN TEMP:  46; 6HR MAX TEMP:  49; 6HR PCP:  0.22;

$$

NEZ057>060-069>072-079>082-221900-
SOUTHWEST NEBRASKA

CITY           SKY/WX    TMP DP  RH WIND       PRES   REMARKS
NORTH PLATTE   LGT RAIN  48  45  89 E17       30.17F
6HR MIN TEMP:  44; 6HR MAX TEMP:  49; 6HR PCP:  0.27;

IMPERIAL       LGT RAIN  50  47  89 SE18G24   30.10F
6HR MIN TEMP:  47; 6HR MAX TEMP:  50; 6HR PCP:  0.44;

LEXINGTON      LGT RAIN  47  45  91 SE14G23   30.22S
MCCOOK         CLOUDY    49  47  93 SE13      30.14F FOG
6HR MIN TEMP:  48; 6HR MAX TEMP:  50; 6HR PCP:  0.28;

OGALLALA       CLOUDY    48  47  96 E20G25    30.13S FOG
$$

NEZ005>010-023>029-035>040-094-221900-
NORTH CENTRAL NEBRASKA

CITY           SKY/WX    TMP DP  RH WIND       PRES   REMARKS
VALENTINE      CLOUDY    60  41  49 S21       30.17S
6HR MIN TEMP:  44; 6HR MAX TEMP:  62;

AINSWORTH      CLOUDY    58  42  54 S20       30.19S
BROKEN BOW     LGT RAIN  50  46  86 SE10      30.23R
6HR MIN TEMP:  41; 6HR MAX TEMP:  53; 6HR PCP:  0.12;

O`NEILL        CLOUDY    63  43  46 S13G18    30.22S
ORD            CLOUDY    56  43  61 S14       30.22R
6HR MIN TEMP:  38; 6HR MAX TEMP:  56; 6HR PCP: TRACE;

THEDFORD       LGT RAIN  49  43  79 S16G22    30.21R
$$

NEZ041-046>049-061>064-073>077-083>087-221900-
SOUTH CENTRAL NEBRASKA

CITY           SKY/WX    TMP DP  RH WIND       PRES   REMARKS
GRAND ISLAND   CLOUDY    54  44  69 SE9       30.24F
6HR MIN TEMP:  45; 6HR MAX TEMP:  55; 6HR PCP: TRACE;

AURORA         CLOUDY    55  47  74 SE3       30.25S
HASTINGS       LGT RAIN  53  48  83 SE3       30.24R
6HR MIN TEMP:  46; 6HR MAX TEMP:  54; 6HR PCP:  0.05;

HEBRON         LGT RAIN  59  45  60 S6        30.24R
HOLDREGE       CLOUDY    49  45  84 E9        30.21F
KEARNEY *      CLOUDY    50  45  81 S10       30.24F
YORK           CLOUDY    57  46  67 SE6       30.25F
$$

NEZ011>018-030>034-042>045-221900-
NORTHEAST NEBRASKA

CITY           SKY/WX    TMP DP  RH WIND       PRES   REMARKS
NORFOLK        CLOUDY    65  38  36 S13       30.23R
6HR MIN TEMP:  45; 6HR MAX TEMP:  67;

ALBION         CLOUDY    60  40  46 S14       30.24S
BLAIR          CLOUDY    67  42  39 S5        30.23S
COLUMBUS *     CLOUDY    63  39  42 S10       30.28R
FREMONT        CLOUDY    66  40  38 SE5       30.25R
TEKAMAH        CLOUDY    71  39  31 S10       30.22F
6HR MIN TEMP:  48; 6HR MAX TEMP:  71;

WAYNE          CLOUDY    69  42  37 S10G17    30.22F
$$

NEZ050>053-065>068-078-088>093-221900-
SOUTHEAST NEBRASKA

CITY           SKY/WX    TMP DP  RH WIND       PRES   REMARKS
LINCOLN        CLOUDY    61  47  59 S5        30.26R
6HR MIN TEMP:  47; 6HR MAX TEMP:  62;

OMAHA EPPLEY   CLOUDY    68  44  42 SE5       30.23S
6HR MIN TEMP:  50; 6HR MAX TEMP:  69;

BEATRICE       CLOUDY    60  46  59 S6        30.24F
FALLS CITY     CLOUDY    62  47  57 S6        30.25S
6HR MIN TEMP:  48; 6HR MAX TEMP:  62;

NEBRASKA CITY  CLOUDY    61  42  49 S6        30.25F
PLATTSMOUTH    CLOUDY    65  42  42 SE6       30.25R
$$

NEZ044-045-051>053-067-221900-
OMAHA AREA

CITY           SKY/WX    TMP DP  RH WIND       PRES   REMARKS
OMAHA EPPLEY   CLOUDY    68  44  42 SE5       30.23S
6HR MIN TEMP:  50; 6HR MAX TEMP:  69;

BLAIR          CLOUDY    67  42  39 S5        30.23S
FREMONT        CLOUDY    66  40  38 SE5       30.25R
MILLARD        CLOUDY    67  46  47 SE5       30.24R
OFFUTT AFB     CLOUDY    67  46  47 SE6       30.23S
PLATTSMOUTH    CLOUDY    65  42  42 SE6       30.25R
WAHOO          FAIR      65  43  45 SW7       30.24S
$$



USA.gov is the U.S. government's official web portal to all federal, state and local government web resources and services.